Weather History for Chester, CT

Change the Weather History Date:

Sunday, December 29, 2013

  Actual Average (KHVN) Record (KHVN)
Temperature  
Mean Temperature 40 °F -  
Max Temperature 44 °F 37 °F 65 °F (1984)
Min Temperature 37 °F 26 °F 15 °F (1977)
Degree Days  
Heating Degree Days 24    
Moisture  
Dew Point 37 °F    
Average Humidity 85    
Maximum Humidity 100    
Minimum Humidity 57    
Precipitation  
Precipitation 2.48 in - - ()
Sea Level Pressure  
Sea Level Pressure 29.79 in    
Wind  
Wind Speed 6 mph (WSW)    
Max Wind Speed 25 mph    
Max Gust Speed 33 mph    
Visibility 7 miles    
Events Rain    
Averages and records for this station are not official NWS values.
T = Trace of Precipitation, MM = Missing Value Source: NWS Daily Summary

Daily Weather History Graph

Daily Weather History Graph

Search for Another Location

Airport:

Trip Planner

Search our weather history database for the weather conditions in past years. The results will help you decide how hot, cold, wet, or windy it might be!

Date:

Astronomy

Dec. 29, 2013 Rise Set
Actual Time 7:15 AM EST 4:28 PM EST
Civil Twilight 6:44 AM EST 5:00 PM EST
Nautical Twilight 6:09 AM EST 5:34 PM EST
Astronomical Twilight 5:35 AM EST 6:08 PM EST
Moon 3:55 AM EST (12/29) 2:05 PM EST (12/29)
Length of Visible Light 10h 15m
Length of Day
9h 13m
Waning Crescent, 11% of the Moon is Illuminated
Dec 29
Waning Crescent
Jan 1
New
Jan 7
First Quarter
Jan 15
Full
Jan 24
Last Quarter

Hourly Weather History & Observations

Time (EST) Temp. Windchill Dew Point Humidity Pressure Visibility Wind Dir Wind Speed Gust Speed Precip Events Conditions
12:15 AM 42.8 °F 39.3 °F 32.0 °F 66% 30.05 in 10.0 mi WSW 5.8 mph - N/A   Clear
12:35 AM 41.0 °F 37.1 °F 32.0 °F 70% 30.04 in 10.0 mi SW 5.8 mph - N/A   Clear
12:55 AM 42.8 °F 40.1 °F 32.0 °F 66% 30.04 in 10.0 mi WSW 4.6 mph - N/A   Clear
1:15 AM 41.0 °F 37.1 °F 32.0 °F 70% 30.04 in 10.0 mi WSW 5.8 mph - N/A   Clear
1:35 AM 41.0 °F 36.4 °F 32.0 °F 70% 30.04 in 10.0 mi WSW 6.9 mph - N/A   Clear
1:55 AM 39.2 °F 35.0 °F 30.2 °F 70% 30.04 in 10.0 mi West 5.8 mph - N/A   Clear
2:15 AM 39.2 °F 35.0 °F 30.2 °F 70% 30.04 in 10.0 mi WSW 5.8 mph - N/A   Clear
2:35 AM 41.0 °F 37.1 °F 30.2 °F 65% 30.05 in 10.0 mi WSW 5.8 mph - N/A   Clear
2:55 AM 41.0 °F 35.8 °F 30.2 °F 65% 30.04 in 10.0 mi WSW 8.1 mph - N/A   Clear
3:15 AM 41.0 °F 37.1 °F 30.2 °F 65% 30.04 in 10.0 mi WSW 5.8 mph - N/A   Clear
3:35 AM 41.0 °F 39.0 °F 30.2 °F 65% 30.02 in 10.0 mi West 3.5 mph - N/A   Clear
3:55 AM 41.0 °F - 30.2 °F 65% 30.02 in 10.0 mi Calm Calm - N/A   Clear
4:15 AM 41.0 °F - 28.4 °F 61% 30.02 in 10.0 mi Calm Calm - N/A   Clear
4:35 AM 42.8 °F 38.0 °F 28.4 °F 57% 30.03 in 10.0 mi SW 8.1 mph - N/A   Clear
4:55 AM 41.0 °F 38.0 °F 30.2 °F 65% 30.02 in 10.0 mi WSW 4.6 mph - N/A   Clear
5:15 AM 41.0 °F 39.0 °F 30.2 °F 65% 30.02 in 10.0 mi WSW 3.5 mph - N/A   Clear
5:35 AM 41.0 °F 39.0 °F 30.2 °F 65% 30.01 in 10.0 mi WSW 3.5 mph - N/A   Clear
5:55 AM 41.0 °F 39.0 °F 30.2 °F 65% 30.01 in 10.0 mi South 3.5 mph - N/A   Clear
6:15 AM 39.2 °F - 30.2 °F 70% 30.01 in 10.0 mi Calm Calm - N/A   Clear
6:35 AM 41.0 °F 39.0 °F 32.0 °F 70% 30.01 in 10.0 mi SSW 3.5 mph - N/A   Clear
6:55 AM 41.0 °F 39.0 °F 32.0 °F 70% 30.00 in 10.0 mi South 3.5 mph - N/A   Clear
7:15 AM 39.2 °F 35.9 °F 33.8 °F 81% 30.01 in 10.0 mi SSW 4.6 mph - N/A   Clear
7:35 AM 41.0 °F 37.1 °F 33.8 °F 76% 30.01 in 10.0 mi South 5.8 mph - N/A   Clear
7:55 AM 41.0 °F 37.1 °F 35.6 °F 81% 30.00 in 10.0 mi SSW 5.8 mph - N/A   Clear
8:15 AM 41.0 °F 38.0 °F 35.6 °F 81% 30.01 in 10.0 mi SSW 4.6 mph - N/A   Clear
8:35 AM 42.8 °F 38.6 °F 37.4 °F 81% 30.02 in 10.0 mi SSW 6.9 mph - N/A   Clear
8:55 AM 42.8 °F 39.3 °F 37.4 °F 81% 30.02 in 10.0 mi SW 5.8 mph - N/A   Clear
9:15 AM 42.8 °F 38.6 °F 37.4 °F 81% 30.02 in 10.0 mi SW 6.9 mph - N/A   Clear
9:35 AM 42.8 °F 39.3 °F 37.4 °F 81% 30.01 in 10.0 mi SW 5.8 mph - N/A   Clear
9:55 AM 42.8 °F 37.5 °F 35.6 °F 76% 30.00 in 10.0 mi SW 9.2 mph - N/A   Clear
10:15 AM 42.8 °F 38.6 °F 35.6 °F 76% 30.00 in 10.0 mi SW 6.9 mph - N/A   Clear
10:35 AM 42.8 °F 39.3 °F 35.6 °F 76% 29.99 in 8.0 mi SW 5.8 mph - N/A   Clear
10:55 AM 42.8 °F 37.5 °F 35.6 °F 76% 29.97 in 10.0 mi SSW 9.2 mph - N/A   Scattered Clouds
11:15 AM 42.8 °F 38.0 °F 35.6 °F 76% 29.94 in 10.0 mi SSW 8.1 mph - N/A   Partly Cloudy
11:35 AM 42.8 °F 38.0 °F 35.6 °F 76% 29.94 in 10.0 mi SSW 8.1 mph - N/A   Mostly Cloudy
11:55 AM 44.6 °F 40.7 °F 35.6 °F 71% 29.92 in 10.0 mi SW 6.9 mph - N/A   Mostly Cloudy
12:15 PM 42.8 °F 40.1 °F 35.6 °F 76% 29.91 in 8.0 mi West 4.6 mph - N/A Rain Light Rain
12:35 PM 42.8 °F 41.1 °F 37.4 °F 81% 29.90 in 5.0 mi SSW 3.5 mph - 0.01 in Rain Light Rain
12:55 PM 41.0 °F - 39.2 °F 93% 29.87 in 3.0 mi Calm Calm - 0.06 in Rain Rain
1:15 PM 41.0 °F - 39.2 °F 93% 29.84 in 3.0 mi Calm Calm - 0.03 in Rain Rain
1:35 PM 41.0 °F 39.0 °F 39.2 °F 93% 29.82 in 3.0 mi SE 3.5 mph - 0.09 in Rain Rain
1:55 PM 39.2 °F - 39.2 °F 100% 29.81 in 3.0 mi Calm Calm - 0.12 in Rain Light Rain
2:15 PM 39.2 °F 37.0 °F 39.2 °F 100% 29.77 in 2.5 mi ENE 3.5 mph - 0.03 in Rain Rain
2:35 PM 39.2 °F 35.9 °F 39.2 °F 100% 29.74 in 3.0 mi East 4.6 mph - 0.07 in Rain Rain
2:55 PM 39.2 °F - 39.2 °F 100% 29.72 in 2.0 mi Calm Calm - 0.16 in Rain Rain
3:15 PM 39.2 °F 35.0 °F 39.2 °F 100% 29.70 in 1.5 mi ENE 5.8 mph - 0.08 in Rain Heavy Rain
3:35 PM 39.2 °F 34.2 °F 39.2 °F 100% 29.65 in 1.2 mi East 6.9 mph - 0.20 in Rain Heavy Rain
3:55 PM 39.2 °F 33.0 °F 39.2 °F 100% 29.62 in 0.8 mi ENE 9.2 mph - 0.33 in Rain Heavy Rain
4:15 PM 41.0 °F 37.1 °F 41.0 °F 100% 29.58 in 0.8 mi East 5.8 mph - 0.15 in Rain Heavy Rain
4:35 PM 42.8 °F 37.5 °F 42.8 °F 100% 29.55 in 2.0 mi East 9.2 mph - 0.40 in Rain Heavy Rain
4:55 PM 42.8 °F 37.0 °F 42.8 °F 100% 29.52 in 2.5 mi East 10.4 mph 17.3 mph 0.64 in Rain Heavy Rain
5:15 PM 42.8 °F 36.6 °F 42.8 °F 100% 29.48 in 2.0 mi East 11.5 mph 20.7 mph 0.11 in Rain Heavy Rain
5:35 PM 44.6 °F 39.2 °F 44.6 °F 100% 29.48 in 1.5 mi ESE 10.4 mph 21.9 mph 0.23 in Rain Heavy Rain
5:55 PM 44.6 °F 41.4 °F 44.6 °F 100% 29.47 in 2.0 mi East 5.8 mph 24.2 mph 0.37 in Rain Heavy Rain
6:15 PM 44.6 °F 41.4 °F 44.6 °F 100% 29.46 in 2.0 mi NE 5.8 mph - 0.17 in Rain Heavy Rain
6:35 PM 44.6 °F 41.4 °F 44.6 °F 100% 29.43 in 1.8 mi NE 5.8 mph - 0.48 in   Overcast
6:55 PM 44.6 °F 40.2 °F 44.6 °F 100% 29.40 in 1.5 mi NE 8.1 mph - 0.64 in   Overcast
7:15 PM 42.8 °F 36.6 °F 42.8 °F 100% 29.38 in 1.5 mi NNE 11.5 mph 16.1 mph 0.04 in   Overcast
7:35 PM 42.8 °F 38.0 °F 42.8 °F 100% 29.39 in 2.5 mi North 8.1 mph 20.7 mph 0.13 in Rain Light Rain
7:55 PM 42.8 °F 36.2 °F 42.8 °F 100% 29.38 in 4.0 mi North 12.7 mph 17.3 mph 0.13 in   Overcast
8:15 PM 41.0 °F 33.5 °F 41.0 °F 100% 29.38 in 3.0 mi North 13.8 mph 20.7 mph N/A Rain Light Rain
8:35 PM 39.2 °F 30.2 °F 39.2 °F 100% 29.39 in 2.0 mi North 17.3 mph 21.9 mph 0.01 in Rain Light Rain
8:55 PM 39.2 °F 29.8 °F 39.2 °F 100% 29.41 in 4.0 mi NNW 18.4 mph 24.2 mph 0.01 in   Overcast
9:15 PM 39.2 °F 30.5 °F 39.2 °F 100% 29.45 in 3.0 mi NNW 16.1 mph 25.3 mph N/A   Light Drizzle
9:35 PM 37.4 °F 25.9 °F 37.4 °F 100% 29.47 in 2.5 mi NNW 25.3 mph 33.4 mph N/A   Overcast
9:55 PM 39.2 °F 30.5 °F 39.2 °F 100% 29.50 in 3.0 mi North 16.1 mph 26.5 mph 0.02 in   Overcast
10:15 PM 39.2 °F 29.8 °F 39.2 °F 100% 29.51 in 10.0 mi NNW 18.4 mph 24.2 mph N/A   Overcast
10:35 PM 39.2 °F 30.8 °F 39.2 °F 100% 29.52 in 10.0 mi NNW 15.0 mph 21.9 mph N/A   Overcast
10:55 PM 39.2 °F 32.0 °F 39.2 °F 100% 29.54 in 8.0 mi NW 11.5 mph 20.7 mph N/A   Overcast
11:15 PM 39.2 °F 33.0 °F 39.2 °F 100% 29.57 in 10.0 mi NW 9.2 mph - N/A   Overcast
11:35 PM 41.0 °F 35.2 °F 41.0 °F 100% 29.58 in 10.0 mi NW 9.2 mph - N/A   Overcast
11:55 PM 41.0 °F 36.4 °F 41.0 °F 100% 29.60 in 10.0 mi WNW 6.9 mph - N/A   Overcast